1504580400.41,31916,14.75,73612.3,-2.21,-4.01,-3.87,0,*54
1504580401.61,31917,14.75,73610.3,-2.23,-4.17,-3.95,0,*53
1504580402.81,31918,14.75,73612.3,-2.23,-4.17,-4.05,0,*52
1504580404.01,31919,14.75,73614.5,-2.23,-4.21,-4.05,0,*56
1504580405.22,31920,14.75,73622.0,-2.23,-4.29,-4.21,0,*52
1504580406.42,31921,14.75,73616.3,-2.23,-4.17,-4.09,0,*54
1504580407.62,31922,14.75,73608.0,-2.27,-4.05,-3.91,0,*56
1504580408.83,31923,14.75,73624.0,-2.27,-3.79,-3.79,0,*5D
1504580410.06,31924,14.75,73624.3,-2.29,-3.83,-3.79,0,*51
1504580411.3,31925,14.75,73622.5,-2.27,-3.63,-3.51,0,*5A
1504580412.55,31926,14.75,73626.5,-2.29,-3.79,-3.67,0,*59
1504580413.75,31927,14.75,73642.8,-2.27,-3.87,-3.87,0,*59
1504580414.96,31928,14.75,73624.0,-2.27,-3.79,-3.79,0,*56
1504580416.21,31929,14.75,73588.0,-2.29,-3.83,-3.71,0,*54
1504580417.48,31930,14.75,73544.3,-2.29,-3.59,-3.59,0,*51
1504580418.7,31931,14.75,73574.8,-2.29,-3.19,-3.35,0,*5E
1504580419.93,31932,14.75,73564.0,-2.29,-3.07,-3.11,0,*54
1504580421.12,31933,14.75,73580.3,-2.27,-3.07,-3.15,0,*5F
1504580422.32,31934,14.75,73592.0,-2.27,-3.15,-3.07,0,*58
1504580423.52,31935,14.75,73584.3,-2.27,-3.27,-3.15,0,*5B
1504580424.72,31936,14.75,73600.0,-2.23,-3.31,-3.27,0,*5A
1504580425.97,31937,14.75,73608.8,-2.27,-3.43,-3.43,0,*58
1504580427.17,31938,14.75,73610.8,-2.27,-3.27,-3.31,0,*50
1504580428.37,31939,14.75,73606.0,-2.27,-3.15,-3.07,0,*55
1504580429.57,31940,14.75,73640.0,-2.27,-3.15,-3.15,0,*58
1504580430.81,31941,14.75,73658.0,-2.23,-3.55,-3.55,0,*5D
1504580432.01,31942,14.75,73638.8,-2.23,-3.91,-3.87,0,*59
1504580433.21,31943,14.75,73630.5,-2.23,-4.05,-3.91,0,*55
1504580434.42,31944,14.75,73626.8,-2.23,-4.21,-4.05,0,*5E
1504580435.62,31945,14.75,73642.0,-2.23,-4.29,-3.91,0,*5D
1504580436.87,31946,14.75,73648.3,-2.29,-4.25,-4.01,0,*56
1504580438.07,31947,14.75,73642.5,-2.27,-4.29,-3.91,0,*5B
1504580439.27,31948,14.75,73618.3,-2.27,-4.05,-3.91,0,*5A
1504580440.5,31949,14.75,73600.0,-2.29,-4.09,-4.09,0,*5F
1504580441.72,31950,14.75,73606.0,-2.29,-3.83,-3.83,0,*57
1504580442.95,31951,14.75,73596.8,-2.27,-3.79,-3.55,0,*56
1504580444.17,31952,14.75,73592.8,-2.27,-3.75,-3.67,0,*58
1504580445.42,31953,14.75,73604.3,-2.27,-3.63,-3.55,0,*5F
1504580446.64,31954,14.75,73622.5,-2.27,-3.75,-3.63,0,*5A
1504580447.89,31955,14.75,73618.8,-2.29,-3.79,-3.67,0,*5D
1504580449.1,31956,14.75,73614.0,-2.27,-3.75,-3.75,0,*5F
1504580450.35,31957,14.75,73610.3,-2.29,-3.79,-3.67,0,*5F
1504580451.61,31958,14.75,73612.0,-2.29,-3.67,-3.55,0,*5E
1504580452.89,31959,14.75,73616.0,-2.29,-3.59,-3.59,0,*5E
1504580454.16,31960,14.75,73616.0,-2.29,-3.71,-3.59,0,*5E
1504580455.39,31961,14.75,73612.3,-2.29,-3.79,-3.79,0,*55
1504580456.62,31962,14.75,73614.0,-2.29,-3.83,-3.83,0,*56
1504580457.82,31963,14.75,73606.5,-2.27,-3.95,-3.87,0,*5A
1504580459.05,31964,14.75,73598.8,-2.29,-3.95,-3.91,0,*54
1504580460.3,31965,14.75,73588.3,-2.29,-4.09,-4.01,0,*59
1504580461.53,31966,14.75,73588.8,-2.29,-4.21,-4.09,0,*58
1504580462.76,31967,14.75,73600.5,-2.29,-4.25,-4.13,0,*56
1504580463.99,31968,14.75,73594.8,-2.29,-4.33,-4.13,0,*5E
1504580465.19,31969,14.75,73590.5,-2.31,-4.25,-4.09,0,*5A
1504580466.42,31970,14.75,73568.8,-2.29,-4.21,-4.13,0,*54
1504580467.62,31971,14.75,73576.0,-2.31,-4.09,-4.09,0,*5D
1504580468.86,31972,14.75,73580.0,-2.31,-4.01,-3.91,0,*50
1504580470.11,31973,14.75,73576.5,-2.33,-4.01,-3.95,0,*57
1504580471.32,31974,14.75,73578.0,-2.31,-3.95,-3.91,0,*5C
1504580472.58,31975,14.75,73586.5,-2.33,-4.01,-3.95,0,*51
1504580473.79,31976,14.75,73582.3,-2.31,-3.95,-3.91,0,*5E
1504580475.04,31977,14.75,73576.5,-2.33,-4.01,-3.87,0,*50
1504580476.28,31978,14.75,73580.8,-2.31,-4.01,-3.91,0,*5A
1504580477.53,31979,14.75,73578.5,-2.33,-4.01,-3.95,0,*5D
1504580478.76,31980,14.75,73576.3,-2.33,-3.95,-3.87,0,*52
1504580479.97,31981,14.75,73570.3,-2.31,-3.91,-3.79,0,*54
1504580481.2,31982,14.75,73564.0,-2.33,-3.95,-3.87,0,*50
1504580482.44,31983,14.75,73560.5,-2.33,-3.75,-3.75,0,*52
1504580483.71,31984,14.75,73570.0,-2.33,-3.63,-3.63,0,*55
1504580484.98,31985,14.75,73566.5,-2.33,-3.63,-3.59,0,*5D
1504580486.25,31986,14.75,73556.0,-2.33,-3.71,-3.71,0,*57
1504580487.52,31987,14.75,73558.0,-2.33,-3.71,-3.63,0,*55
1504580488.79,31988,14.75,73558.8,-2.33,-3.63,-3.63,0,*59
1504580490.05,31989,14.75,73552.8,-2.33,-3.71,-3.71,0,*58
1504580491.31,31990,14.75,73572.5,-2.31,-3.59,-3.59,0,*52
1504580492.56,31991,14.75,73580.5,-2.31,-3.59,-3.55,0,*5F
1504580493.83,31992,14.75,73584.8,-2.33,-3.51,-3.59,0,*5A
1504580495.11,31993,14.75,73576.0,-2.33,-3.63,-3.51,0,*52
1504580496.33,31994,14.75,73574.5,-2.31,-3.47,-3.35,0,*53
1504580497.6,31995,14.75,73584.0,-2.33,-3.47,-3.47,0,*55
1504580498.87,31996,14.75,73582.0,-2.33,-3.47,-3.47,0,*56
1504580500.12,31997,14.75,73558.0,-2.31,-3.59,-3.55,0,*59
1504580501.36,31998,14.75,73542.5,-2.31,-3.71,-3.71,0,*5A
1504580502.61,31999,14.75,73560.0,-2.33,-3.39,-3.47,0,*50
1504580503.81,32000,14.75,73568.8,-2.31,-3.11,-3.11,0,*51
1504580505.06,32001,14.75,73572.0,-2.31,-3.47,-3.59,0,*5F
1504580506.28,32002,14.75,73566.8,-2.31,-3.79,-3.79,0,*53
1504580507.51,32003,14.75,73562.3,-2.31,-4.01,-3.95,0,*58
1504580508.76,32004,14.75,73564.5,-2.33,-4.01,-3.95,0,*5D
1504580509.97,32005,14.75,73558.8,-2.31,-3.95,-3.83,0,*53
1504580511.18,32006,14.75,73568.3,-2.31,-3.95,-3.83,0,*50
1504580512.41,32007,14.75,73566.5,-2.31,-4.01,-3.91,0,*58
1504580513.63,32008,14.75,73566.3,-2.33,-4.17,-4.05,0,*58
1504580514.89,32009,14.75,73568.5,-2.33,-4.13,-4.01,0,*59
1504580516.11,32010,14.75,73570.5,-2.33,-4.13,-4.05,0,*55
1504580517.33,32011,14.75,73566.5,-2.33,-4.05,-3.95,0,*5D
1504580518.56,32012,14.75,73562.5,-2.31,-4.01,-3.95,0,*58
1504580519.8,32013,14.75,73572.8,-2.31,-4.01,-3.95,0,*59
1504580521.05,32014,14.75,73572.0,-2.33,-4.05,-4.01,0,*52
1504580522.3,32015,14.75,73574.8,-2.33,-4.01,-3.95,0,*5D
1504580523.53,32016,14.75,73576.5,-2.33,-4.05,-4.05,0,*54
1504580524.73,32017,14.75,73574.8,-2.35,-4.05,-3.95,0,*5D
1504580525.93,32018,14.75,73576.5,-2.35,-3.95,-3.87,0,*5F
1504580527.15,32019,14.75,73572.3,-2.37,-4.05,-4.05,0,*5F
1504580528.41,32020,14.75,73574.0,-2.33,-4.01,-3.95,0,*5B
1504580529.66,32021,14.75,73576.5,-2.33,-4.01,-3.87,0,*59
1504580530.89,32022,14.75,73580.3,-2.33,-3.87,-3.83,0,*57
1504580532.12,32023,14.75,73584.8,-2.33,-3.83,-3.83,0,*52
1504580533.34,32024,14.75,73590.5,-2.35,-3.75,-3.71,0,*57
1504580534.59,32025,14.75,73582.0,-2.35,-3.63,-3.63,0,*52
1504580535.83,32026,14.75,73586.3,-2.35,-3.71,-3.63,0,*52
1504580537.08,32027,14.75,73586.8,-2.35,-3.63,-3.59,0,*59
1504580538.33,32028,14.75,73588.8,-2.35,-3.59,-3.51,0,*57
1504580539.57,32029,14.75,73582.5,-2.35,-3.51,-3.51,0,*5E
1504580540.82,32030,14.75,73584.5,-2.35,-3.51,-3.51,0,*56
1504580542.07,32031,14.75,73586.0,-2.35,-3.59,-3.59,0,*57
1504580543.35,32032,14.75,73586.0,-2.33,-3.71,-3.59,0,*58
1504580544.61,32033,14.75,73578.3,-2.33,-3.71,-3.63,0,*50
1504580545.86,32034,14.75,73586.3,-2.35,-3.71,-3.59,0,*58
1504580547.11,32035,14.75,73580.8,-2.35,-3.59,-3.59,0,*53
1504580548.35,32036,14.75,73588.0,-2.35,-3.51,-3.47,0,*57
1504580549.62,32037,14.75,73596.0,-2.33,-3.51,-3.47,0,*50
1504580550.9,32038,14.75,73606.3,-2.33,-3.59,-3.51,0,*50
1504580552.15,32039,14.75,73606.5,-2.31,-3.59,-3.55,0,*57
1504580553.42,32040,14.75,73608.5,-2.33,-3.63,-3.59,0,*5E
1504580554.66,32041,14.75,73610.5,-2.33,-3.83,-3.75,0,*5F
1504580555.89,32042,14.75,73608.3,-2.33,-3.83,-3.83,0,*55
1504580557.11,32043,14.75,73610.0,-2.33,-3.87,-3.83,0,*50
1504580558.35,32044,14.75,73612.3,-2.33,-3.75,-3.75,0,*53
1504580559.6,32045,14.75,73608.5,-2.33,-3.75,-3.71,0,*56
1504580560.87,32046,14.75,73604.5,-2.33,-3.63,-3.63,0,*51
1504580562.15,32047,14.75,73606.8,-2.33,-3.63,-3.59,0,*59
1504580563.42,32048,14.75,73612.8,-2.33,-3.59,-3.51,0,*57
1504580564.69,32049,14.75,73608.3,-2.33,-3.63,-3.51,0,*5F
1504580565.96,32050,14.75,73608.0,-2.33,-3.51,-3.47,0,*51
1504580567.21,32051,14.75,73594.3,-2.33,-3.51,-3.39,0,*59
1504580568.44,32052,14.75,73594.8,-2.33,-3.39,-3.27,0,*5B
1504580569.67,32053,14.75,73596.5,-2.33,-3.27,-3.15,0,*54
1504580570.88,32054,14.75,73600.8,-2.33,-3.23,-3.23,0,*52
1504580572.11,32055,14.75,73616.3,-2.33,-3.35,-3.27,0,*50
1504580573.31,32056,14.75,73624.8,-2.31,-3.31,-3.23,0,*51
1504580574.59,32057,14.75,73610.8,-2.33,-3.59,-3.59,0,*51
1504580575.86,32058,14.75,73586.0,-2.33,-3.59,-3.51,0,*56
1504580577.13,32059,14.75,73568.5,-2.33,-3.59,-3.51,0,*57
1504580578.38,32060,14.75,73580.8,-2.31,-3.55,-3.55,0,*57
1504580579.66,32061,14.75,73580.5,-2.33,-3.59,-3.59,0,*54
1504580580.93,32062,14.75,73572.0,-2.33,-3.59,-3.51,0,*5F
1504580582.2,32063,14.75,73578.3,-2.33,-3.51,-3.51,0,*56
1504580583.47,32064,14.75,73588.8,-2.33,-3.47,-3.43,0,*55
1504580584.69,32065,14.75,73578.5,-2.33,-3.35,-3.23,0,*57
1504580585.92,32066,14.75,73584.8,-2.33,-2.99,-2.95,0,*5F
1504580587.12,32067,14.75,73592.5,-2.31,-2.79,-2.79,0,*50
1504580588.33,32068,14.75,73604.0,-2.31,-3.19,-2.95,0,*5A
1504580589.56,32069,14.75,73598.8,-2.33,-3.39,-3.39,0,*5C
1504580590.75,32070,14.75,73600.0,-2.31,-3.19,-3.19,0,*56
1504580592.0,32071,14.75,73610.0,-2.29,-3.43,-3.35,0,*5F
1504580593.25,32072,14.75,73602.8,-2.29,-3.43,-3.35,0,*5C
1504580594.51,32073,14.75,73592.8,-2.29,-3.55,-3.47,0,*5F
1504580595.76,32074,14.75,73592.8,-2.31,-3.71,-3.59,0,*58
1504580597.02,32075,14.75,73590.0,-2.31,-3.59,-3.59,0,*53
1504580598.26,32076,14.75,73602.8,-2.31,-3.59,-3.47,0,*5F
1504580599.46,32077,14.75,73592.5,-2.31,-3.35,-3.23,0,*56
1504580600.71,32078,14.75,73596.0,-2.29,-3.43,-3.35,0,*56
1504580601.91,32079,14.75,73606.8,-2.27,-3.27,-3.19,0,*55
1504580603.17,32080,14.75,73602.5,-2.29,-3.71,-3.67,0,*57
1504580604.4,32081,14.75,73602.3,-2.29,-3.83,-3.79,0,*54
1504580605.61,32082,14.75,73596.8,-2.31,-3.83,-3.79,0,*5E
1504580606.84,32083,14.75,73594.8,-2.33,-3.87,-3.83,0,*5C
1504580608.07,32084,14.75,73590.0,-2.33,-3.95,-3.95,0,*5F
1504580609.28,32085,14.75,73594.0,-2.31,-3.83,-3.83,0,*5C
1504580610.49,32086,14.75,73592.5,-2.31,-3.79,-3.91,0,*59
1504580611.72,32087,14.75,73594.0,-2.33,-3.87,-3.87,0,*5C
1504580612.94,32088,14.75,73590.3,-2.33,-3.95,-3.87,0,*50
1504580614.17,32089,14.75,73590.0,-2.33,-4.05,-4.05,0,*52
1504580615.43,32090,14.75,73588.5,-2.31,-4.01,-4.01,0,*58
1504580616.68,32091,14.75,73590.0,-2.33,-4.05,-4.01,0,*5F
1504580617.88,32092,14.75,73594.5,-2.31,-3.95,-3.95,0,*5A
1504580619.11,32093,14.75,73596.3,-2.33,-4.05,-3.87,0,*54
1504580620.34,32094,14.75,73602.0,-2.33,-3.95,-3.83,0,*59
1504580621.56,32095,14.75,73594.3,-2.33,-3.87,-3.83,0,*5B
1504580622.79,32096,14.75,73596.5,-2.33,-3.87,-3.83,0,*58
1504580624.01,32097,14.75,73602.3,-2.33,-3.87,-3.83,0,*59
1504580625.24,32098,14.75,73596.8,-2.33,-3.83,-3.83,0,*52
1504580626.47,32099,14.75,73596.0,-2.33,-3.95,-3.95,0,*53
1504580627.7,32100,14.75,73602.8,-2.33,-3.95,-3.87,0,*51
1504580628.93,32101,14.75,73604.5,-2.33,-3.87,-3.95,0,*50
1504580630.18,32102,14.75,73604.5,-2.35,-4.01,-4.01,0,*56
1504580631.44,32103,14.75,73610.5,-2.35,-4.01,-4.01,0,*57
1504580632.64,32104,14.75,73606.8,-2.35,-3.87,-3.87,0,*50
1504580633.87,32105,14.75,73574.3,-2.33,-3.87,-3.75,0,*5A
1504580635.14,32106,14.75,73566.0,-2.33,-3.63,-3.51,0,*55
1504580636.39,32107,14.75,73598.0,-2.35,-3.47,-3.59,0,*5C
1504580637.59,32108,14.75,73594.0,-2.35,-3.15,-3.11,0,*58
1504580638.8,32109,14.75,73586.8,-2.31,-3.79,-3.79,0,*59
1504580640.07,32110,14.75,73590.8,-2.33,-3.71,-3.63,0,*50
1504580641.29,32111,14.75,73580.8,-2.33,-4.13,-4.05,0,*55
1504580642.52,32112,14.75,73594.8,-2.33,-4.17,-4.13,0,*55
1504580643.77,32113,14.75,73594.5,-2.33,-4.13,-4.01,0,*53
1504580645.02,32114,14.75,73604.0,-2.33,-4.05,-4.01,0,*53
1504580646.22,32115,14.75,73564.0,-2.35,-3.95,-3.95,0,*50
1504580647.45,32116,14.75,73596.8,-2.33,-3.87,-3.83,0,*51
1504580648.68,32117,14.75,73608.8,-2.33,-3.83,-3.83,0,*54
1504580649.9,32118,14.75,73598.8,-2.33,-3.87,-3.83,0,*5F
1504580651.11,32119,14.75,73600.5,-2.35,-3.83,-3.83,0,*5C
1504580652.34,32120,14.75,73610.5,-2.33,-3.75,-3.83,0,*59
1504580653.55,32121,14.75,73596.5,-2.31,-3.79,-3.79,0,*53
1504580654.78,32122,14.75,73600.0,-2.33,-3.95,-3.83,0,*55
1504580656.03,32123,14.75,73602.8,-2.33,-3.75,-3.71,0,*57
1504580657.28,32124,14.75,73610.3,-2.31,-3.67,-3.59,0,*5B
1504580658.55,32125,14.75,73614.8,-2.33,-3.59,-3.47,0,*5A
1504580659.81,32126,14.75,73626.3,-2.33,-3.51,-3.39,0,*58
1504580661.03,32127,14.75,73628.0,-2.31,-3.43,-3.35,0,*54
1504580662.28,32128,14.75,73630.5,-2.31,-3.47,-3.43,0,*5E
1504580663.56,32129,14.75,73638.3,-2.33,-3.59,-3.59,0,*59
1504580664.83,32130,14.75,73630.3,-2.33,-3.59,-3.51,0,*59
1504580666.1,32131,14.75,73622.3,-2.33,-3.63,-3.51,0,*51
1504580667.37,32132,14.75,73616.3,-2.33,-3.71,-3.71,0,*53
1504580668.64,32133,14.75,73626.3,-2.33,-3.71,-3.63,0,*51
1504580669.89,32134,14.75,73628.3,-2.31,-3.63,-3.47,0,*51
1504580671.16,32135,14.75,73624.0,-2.33,-3.59,-3.51,0,*5C
1504580672.43,32136,14.75,73632.5,-2.33,-3.63,-3.51,0,*56
1504580673.7,32137,14.75,73606.0,-2.33,-3.51,-3.51,0,*56
1504580674.96,32138,14.75,73620.8,-2.33,-3.47,-3.39,0,*50
1504580676.2,32139,14.75,73620.0,-2.31,-3.55,-3.47,0,*59
1504580677.45,32140,14.75,73600.3,-2.31,-3.51,-3.47,0,*53
1504580678.7,32141,14.75,73598.3,-2.33,-3.51,-3.39,0,*59
1504580679.92,32142,14.75,73608.8,-2.33,-3.35,-3.39,0,*58
1504580681.15,32143,14.75,73604.8,-2.33,-3.27,-3.23,0,*51
1504580682.35,32144,14.75,73602.8,-2.31,-3.31,-3.19,0,*5A
1504580683.56,32145,14.75,73604.5,-2.33,-3.23,-3.23,0,*53
1504580684.79,32146,14.75,73618.8,-2.33,-3.39,-3.27,0,*5F
1504580686.02,32147,14.75,73604.3,-2.33,-3.39,-3.39,0,*51
1504580687.27,32148,14.75,73614.3,-2.33,-3.47,-3.39,0,*57
1504580688.5,32149,14.75,73612.3,-2.31,-3.43,-3.35,0,*5C
1504580689.7,32150,14.75,73614.0,-2.31,-3.39,-3.39,0,*55
1504580690.91,32151,14.75,73602.3,-2.31,-3.35,-3.35,0,*54
1504580692.13,32152,14.75,73604.3,-2.31,-3.43,-3.35,0,*56
1504580693.38,32153,14.75,73606.0,-2.31,-3.43,-3.43,0,*56
1504580694.58,32154,14.75,73590.5,-2.31,-3.35,-3.35,0,*51
1504580695.78,32155,14.75,73608.0,-2.31,-3.31,-3.23,0,*53
1504580696.98,32156,14.75,73622.8,-2.31,-3.23,-3.11,0,*52
1504580698.18,32157,14.75,73602.0,-2.31,-3.31,-3.19,0,*58
1504580699.37,32158,14.75,73620.8,-2.31,-3.23,-3.23,0,*5D
1504580700.57,32159,14.75,73626.5,-2.31,-3.31,-3.19,0,*56
1504580701.77,32160,14.75,73626.0,-2.31,-3.23,-3.19,0,*5F
1504580702.99,32161,14.75,73610.5,-2.29,-3.35,-3.31,0,*5A
1504580704.23,32162,14.75,73614.0,-2.31,-3.55,-3.47,0,*57
1504580705.48,32163,14.75,73606.3,-2.29,-3.55,-3.35,0,*5A
1504580706.71,32164,14.75,73602.8,-2.33,-3.27,-3.27,0,*50
1504580707.91,32165,14.75,73608.8,-2.31,-3.35,-3.31,0,*57
1504580709.13,32166,14.75,73606.0,-2.29,-3.31,-3.23,0,*5A
1504580710.35,32167,14.75,73600.8,-2.29,-3.35,-3.31,0,*5C
1504580711.57,32168,14.75,73598.3,-2.29,-3.23,-3.19,0,*5E
1504580712.79,32169,14.75,73606.3,-2.29,-3.19,-3.19,0,*56
1504580714.01,32170,14.75,73604.0,-2.29,-3.11,-3.11,0,*5E
1504580715.23,32171,14.75,73614.0,-2.29,-3.11,-3.07,0,*58
1504580716.46,32172,14.75,73604.3,-2.29,-3.07,-2.95,0,*56
1504580717.68,32173,14.75,73612.0,-2.29,-2.95,-2.91,0,*59
1504580718.88,32174,14.75,73626.0,-2.27,-2.91,-2.87,0,*53
1504580720.07,32175,14.75,73616.5,-2.27,-3.19,-3.11,0,*5D
1504580721.27,32176,14.75,73636.0,-2.27,-3.11,-3.11,0,*56
1504580722.49,32177,14.75,73632.0,-2.29,-3.19,-3.11,0,*51
1504580723.7,32178,14.75,73624.8,-2.23,-3.27,-3.27,0,*5C
1504580724.92,32179,14.75,73622.5,-2.27,-3.39,-3.43,0,*54
1504580726.12,32180,14.75,73624.3,-2.27,-3.39,-3.31,0,*57
1504580727.32,32181,14.75,73624.5,-2.27,-3.39,-3.31,0,*56
1504580728.54,32182,14.75,73620.3,-2.27,-3.43,-3.31,0,*58
1504580729.76,32183,14.75,73614.3,-2.27,-3.43,-3.31,0,*59
1504580731.01,32184,14.75,73608.0,-2.27,-3.51,-3.43,0,*58
1504580732.25,32185,14.75,73614.0,-2.27,-3.51,-3.51,0,*5A
1504580733.52,32186,14.75,73602.5,-2.29,-3.43,-3.47,0,*53
1504580734.71,32187,14.75,73598.3,-2.27,-3.39,-3.31,0,*50
1504580735.92,32188,14.75,73602.8,-2.27,-3.39,-3.27,0,*58
1504580737.14,32189,14.75,73606.8,-2.27,-3.43,-3.31,0,*53
1504580738.39,32190,14.75,73604.8,-2.29,-3.43,-3.35,0,*51
1504580739.59,32191,14.75,73608.3,-2.27,-3.31,-3.27,0,*58
1504580740.8,32192,14.75,73610.3,-2.27,-3.31,-3.27,0,*5B
1504580742.02,32193,14.75,73614.5,-2.29,-3.31,-3.19,0,*59
1504580743.24,32194,14.75,73612.0,-2.29,-3.35,-3.31,0,*50
1504580744.46,32195,14.75,73614.0,-2.27,-3.43,-3.39,0,*56
1504580745.71,32196,14.75,73610.3,-2.29,-3.47,-3.35,0,*53
1504580746.93,32197,14.75,73618.8,-2.29,-3.35,-3.23,0,*50
1504580748.13,32198,14.75,73606.5,-2.27,-3.19,-3.19,0,*56
1504580749.32,32199,14.75,73596.3,-2.27,-3.07,-3.19,0,*58
1504580750.52,32200,14.75,73598.8,-2.27,-3.07,-3.07,0,*54
1504580751.72,32201,14.75,73588.0,-2.27,-3.15,-3.07,0,*56
1504580752.92,32202,14.75,73602.8,-2.27,-3.07,-3.03,0,*52
1504580754.11,32203,14.75,73608.3,-2.23,-3.07,-3.03,0,*57
1504580755.31,32204,14.75,73606.0,-2.23,-3.07,-3.03,0,*50
1504580756.54,32205,14.75,73598.8,-2.21,-3.03,-2.99,0,*55
1504580757.76,32206,14.75,73620.8,-2.21,-3.03,-2.99,0,*56
1504580758.97,32207,14.75,73600.8,-2.23,-3.15,-3.03,0,*50
1504580760.17,32208,14.75,73616.8,-2.23,-3.15,-3.03,0,*5F
1504580761.39,32209,14.75,73612.3,-2.21,-3.15,-3.03,0,*5C
1504580762.6,32210,14.75,73604.8,-2.21,-3.23,-3.23,0,*53
1504580763.83,32211,14.75,73610.3,-2.21,-3.27,-3.15,0,*53
1504580765.02,32212,14.75,73602.8,-2.23,-3.19,-3.19,0,*53
1504580766.22,32213,14.75,73598.8,-2.23,-3.31,-3.19,0,*58
1504580767.42,32214,14.75,73600.5,-2.27,-3.27,-3.19,0,*5C
1504580768.64,32215,14.75,73602.5,-2.21,-3.11,-3.03,0,*55
1504580769.84,32216,14.75,73576.0,-2.23,-3.19,-3.15,0,*5B
1504580771.04,32217,14.75,73586.0,-2.23,-3.15,-3.07,0,*55
1504580772.23,32218,14.75,73596.0,-2.23,-3.11,-3.15,0,*5D
1504580773.46,32219,14.75,73600.5,-2.21,-3.03,-2.99,0,*58
1504580774.68,32220,14.75,73606.8,-2.21,-3.03,-2.99,0,*52
1504580775.9,32221,14.75,73608.8,-2.21,-3.35,-3.23,0,*56
1504580777.15,32222,14.75,73602.0,-2.21,-3.75,-3.63,0,*55
1504580778.35,32223,14.75,73598.0,-2.19,-3.75,-3.75,0,*58
1504580779.58,32224,14.75,73594.8,-2.21,-3.91,-3.83,0,*57
1504580780.78,32225,14.75,73598.0,-2.23,-4.05,-3.91,0,*5D
1504580781.98,32226,14.75,73592.8,-2.23,-4.05,-3.91,0,*5E
1504580783.19,32227,14.75,73594.5,-2.23,-4.05,-3.91,0,*5F
1504580784.39,32228,14.75,73596.3,-2.27,-3.87,-3.79,0,*5F
1504580785.59,32229,14.75,73588.0,-2.27,-3.95,-3.91,0,*5B
1504580786.8,32230,14.75,73596.0,-2.27,-3.79,-3.79,0,*57
1504580788.03,32231,14.75,73594.0,-2.29,-3.83,-3.83,0,*58
1504580789.26,32232,14.75,73592.0,-2.27,-3.75,-3.67,0,*56
1504580790.5,32233,14.75,73590.8,-2.27,-3.63,-3.63,0,*54
1504580791.74,32234,14.75,73582.8,-2.27,-3.67,-3.63,0,*57
1504580792.99,32235,14.75,73580.5,-2.27,-3.63,-3.55,0,*57
1504580794.23,32236,14.75,73580.3,-2.27,-3.51,-3.43,0,*52
1504580795.45,32237,14.75,73578.3,-2.29,-3.31,-3.19,0,*54
1504580796.67,32238,14.75,73590.5,-2.29,-3.35,-3.23,0,*56
1504580797.88,32239,14.75,73588.8,-2.27,-3.31,-3.27,0,*59
1504580799.08,32240,14.75,73598.5,-2.27,-3.39,-3.27,0,*5F
1504580800.35,32241,14.75,73586.8,-2.29,-3.47,-3.43,0,*5B
1504580801.58,32242,14.75,73586.3,-2.29,-3.35,-3.35,0,*5C
1504580802.78,32243,14.75,73580.0,-2.27,-3.31,-3.31,0,*53
1504580804.0,32244,14.75,73582.5,-2.29,-3.31,-3.31,0,*5A
1504580805.2,32245,14.75,73576.5,-2.27,-3.31,-3.27,0,*52
1504580806.42,32246,14.75,73584.5,-2.29,-3.31,-3.23,0,*5B
1504580807.64,32247,14.75,73584.5,-2.29,-3.19,-3.19,0,*59
1504580808.83,32248,14.75,73578.3,-2.27,-3.23,-3.23,0,*58
1504580810.02,32249,14.75,73590.5,-2.27,-3.19,-3.19,0,*59
1504580811.22,32250,14.75,73588.0,-2.23,-3.27,-3.19,0,*58
1504580812.42,32251,14.75,73586.8,-2.27,-3.15,-3.07,0,*53
1504580813.62,32252,14.75,73592.3,-2.27,-3.15,-3.15,0,*53
1504580814.82,32253,14.75,73588.0,-2.27,-3.31,-3.27,0,*55
1504580816.07,32254,14.75,73586.8,-2.27,-3.43,-3.51,0,*56
1504580817.31,32255,14.75,73604.0,-2.27,-3.51,-3.43,0,*57
1504580818.56,32256,14.75,73592.3,-2.27,-3.63,-3.51,0,*56
1504580819.79,32257,14.75,73596.0,-2.27,-3.75,-3.67,0,*55
1504580821.03,32258,14.75,73582.8,-2.27,-3.63,-3.67,0,*5D
1504580822.25,32259,14.75,73594.3,-2.27,-3.67,-3.75,0,*5B
1504580823.46,32260,14.75,73580.8,-2.27,-3.87,-3.91,0,*55
1504580824.66,32261,14.75,73590.5,-2.27,-4.09,-4.09,0,*53
1504580825.85,32262,14.75,73586.5,-2.27,-4.17,-4.05,0,*53
1504580827.08,32263,14.75,73590.0,-2.29,-4.33,-4.25,0,*58
1504580828.3,32264,14.75,73592.0,-2.29,-4.61,-4.49,0,*52
1504580829.53,32265,14.75,73594.3,-2.29,-4.25,-4.13,0,*5C
1504580830.75,32266,14.75,73588.0,-2.29,-4.13,-3.95,0,*53
1504580831.98,32267,14.75,73584.0,-2.29,-4.09,-3.91,0,*5D
1504580833.2,32268,14.75,73588.5,-2.29,-4.13,-3.91,0,*59
1504580834.45,32269,14.75,73588.5,-2.29,-4.13,-4.01,0,*56
1504580835.7,32270,14.75,73588.8,-2.29,-4.01,-3.83,0,*50
1504580836.91,32271,14.75,73590.5,-2.31,-3.95,-3.91,0,*51
1504580838.14,32272,14.75,73580.3,-2.29,-3.95,-3.91,0,*5B
1504580839.37,32273,14.75,73582.3,-2.29,-3.91,-3.83,0,*5D
1504580840.6,32274,14.75,73590.5,-2.29,-3.83,-3.83,0,*59
1504580841.81,32275,14.75,73588.0,-2.31,-3.91,-3.91,0,*51
1504580843.05,32276,14.75,73590.0,-2.31,-3.95,-4.01,0,*58
1504580844.25,32277,14.75,73592.5,-2.31,-4.13,-4.09,0,*58
1504580845.45,32278,14.75,73588.3,-2.31,-4.25,-4.09,0,*52
1504580846.7,32279,14.75,73580.8,-2.33,-4.05,-4.01,0,*5B
1504580847.93,32280,14.75,73594.5,-2.33,-4.05,-3.87,0,*54
1504580849.13,32281,14.75,73600.0,-2.31,-4.09,-3.83,0,*5F
1504580850.38,32282,14.75,73598.5,-2.33,-4.01,-3.87,0,*52
1504580851.61,32283,14.75,73598.5,-2.33,-3.87,-3.83,0,*5E
1504580852.85,32284,14.75,73594.0,-2.31,-3.71,-3.67,0,*58
1504580854.08,32285,14.75,73590.5,-2.33,-3.83,-3.83,0,*5C
1504580855.29,32286,14.75,73586.0,-2.31,-3.95,-3.91,0,*59
1504580856.53,32287,14.75,73592.5,-2.33,-3.75,-3.75,0,*5E
1504580857.8,32288,14.75,73588.8,-2.33,-3.63,-3.71,0,*52
1504580859.07,32289,14.75,73578.0,-2.33,-3.51,-3.47,0,*57
1504580860.32,32290,14.75,73576.5,-2.33,-3.51,-3.39,0,*56
1504580861.55,32291,14.75,73576.3,-2.33,-3.27,-3.27,0,*59
1504580862.77,32292,14.75,73576.3,-2.33,-3.27,-3.23,0,*5E
1504580863.97,32293,14.75,73580.3,-2.31,-3.11,-3.19,0,*51
1504580865.17,32294,14.75,73604.8,-2.31,-3.19,-3.19,0,*5E
1504580866.44,32295,14.75,73590.8,-2.33,-3.63,-3.47,0,*5B
1504580867.69,32296,14.75,73584.0,-2.33,-3.75,-3.71,0,*5A
1504580868.9,32297,14.75,73584.5,-2.31,-3.83,-3.75,0,*54
1504580870.15,32298,14.75,73586.0,-2.33,-4.01,-3.87,0,*59
1504580871.37,32299,14.75,73590.5,-2.33,-4.17,-3.95,0,*5C
1504580872.58,32300,14.75,73594.8,-2.31,-4.25,-4.25,0,*52
1504580873.83,32301,14.75,73588.8,-2.33,-4.17,-4.01,0,*56
1504580875.06,32302,14.75,73590.3,-2.33,-4.25,-4.13,0,*57
1504580876.29,32303,14.75,73602.8,-2.33,-4.13,-4.05,0,*54
1504580877.49,32304,14.75,73604.3,-2.35,-4.25,-4.41,0,*50
1504580878.69,32305,14.75,73610.8,-2.35,-4.53,-4.61,0,*52
1504580879.89,32306,14.75,73612.3,-2.35,-4.65,-4.65,0,*50
1504580881.13,32307,14.75,73608.3,-2.35,-4.81,-4.77,0,*58
1504580882.38,32308,14.75,73608.5,-2.37,-4.99,-4.81,0,*55
1504580883.65,32309,14.75,73606.0,-2.37,-4.85,-4.69,0,*5F
1504580884.88,32310,14.75,73604.0,-2.39,-4.85,-4.61,0,*51
1504580886.1,32311,14.75,73606.8,-2.37,-4.45,-4.41,0,*50
1504580887.33,32312,14.75,73614.8,-2.37,-4.21,-4.17,0,*52
1504580888.53,32313,14.75,73618.3,-2.39,-4.09,-3.95,0,*5A
1504580889.77,32314,14.75,73616.5,-2.41,-3.79,-3.67,0,*5F
1504580890.99,32315,14.75,73606.5,-2.39,-3.79,-3.79,0,*5E
1504580892.23,32316,14.75,73606.0,-2.39,-3.71,-3.71,0,*5D
1504580893.5,32317,14.75,73614.3,-2.41,-3.67,-3.67,0,*53
1504580894.77,32318,14.75,73622.0,-2.41,-3.59,-3.59,0,*5C
1504580896.02,32319,14.75,73612.0,-2.39,-3.47,-3.59,0,*5D
1504580897.27,32320,14.75,73588.8,-2.39,-3.59,-3.47,0,*57
1504580898.48,32321,14.75,73580.8,-2.39,-3.35,-3.35,0,*59
1504580899.68,32322,14.75,73580.0,-2.39,-3.35,-3.31,0,*5E
1504580900.91,32323,14.75,73582.5,-2.37,-3.31,-3.19,0,*5F
1504580902.13,32324,14.75,73614.8,-2.37,-3.11,-3.11,0,*52
1504580903.35,32325,14.75,73610.8,-2.37,-3.19,-3.15,0,*5F
1504580904.58,32326,14.75,73616.5,-2.37,-3.27,-3.19,0,*5D
1504580905.77,32327,14.75,73618.8,-2.35,-3.23,-3.15,0,*56
1504580906.97,32328,14.75,73616.3,-2.35,-3.39,-3.27,0,*53
1504580908.2,32329,14.75,73614.5,-2.33,-3.39,-3.35,0,*57